Regional Weather Roundup
Issued by NWS

Home | Current Version | Previous Version | Text Only | Print | Product List | Glossary On
Versions: 1 2 3 4 5 6 7 8 9 10 11 12 13 14 15 16 17 18 19 20 21 22 23 24 25 26 27 28 29 30 31 32 33 34 35 36 37 38 39 40 41 42 43 44 45 46 47 48 49 50
783
ASUS44 KLIX 280101
RWRLA
LOUISIANA WEATHER ROUNDUP
NATIONAL WEATHER SERVICE NEW ORLEANS LA
800 PM CDT SUN JUL 27 2014

NOTE: "FAIR" INDICATES FEW OR NO CLOUDS BELOW 12,000 FEET WITH NO
      SIGNIFICANT WEATHER AND/OR OBSTRUCTIONS TO VISIBILITY.
      SKY/WX - SKY CONDITION AND SIGNIFICANT WEATHER.
      TMP - AIR TEMPERATURE.    DP   - DEWPOINT TEMPERATURE.
      RH  - RELATIVE HUMIDITY.  PRES - PRESSURE.
      HX  - HEAT INDEX.         WCI  - WIND CHILL INDEX.

*  THESE STATIONS ARE NOT NWS OR FAA STATIONS AND ARE NOT UNDER
   NWS QUALITY CONTROL.

LAZ040-048-061>063-065-066-069-280200-
SOUTHEAST LOUISIANA

CITY           SKY/WX    TMP DP  RH WIND       PRES   REMARKS
N.O. AUDUBON     N/A     88  76  67 MISG        N/A  HX  98
N.O. INTL ARPT MOCLDY    84  74  71 W9        30.02S
N.O. LAKEFRONT MOCLDY    88  74  63 SW10      30.03R HX  96
N.O. DOWNTOWN* MOCLDY    88  72  58 SW7       30.03S
SLIDELL        PTCLDY    87  74  64 S3        30.01S HX  95
BATON ROUGE    PTCLDY    86  74  67 SW13      30.02R
BOOTHVILLE     PTCLDY    85  78  80 SW10      30.05S HX  96
BELLE CHASSE   PTCLDY    84  76  76 SW3       30.03R
BOGALUSA*      FAIR      87  76  70 CALM      30.02F HX  97
GALLIANO*      NOT AVBL
NEW ROADS*     FAIR      87  77  72 S9        30.02S HX  98
GONZALES*      FAIR      84  78  81 CALM      30.03R HX  95
HAMMOND*       PTCLDY    88  72  58 W3        30.03F
HOUMA*         MOCLDY    85  73  67 W3        30.04S
PORT FOURCHON* CLEAR     86  75  70 SW9G16    30.07S HX  95

$$

LAZ041-044-053-054-280200-
SOUTHWEST LOUISIANA

CITY           SKY/WX    TMP DP  RH WIND       PRES   REMARKS
LAKE CHARLES   CLEAR     85  74  69 SW7       30.03S
LAFAYETTE      PTCLDY    87  75  67 SW10      30.03S HX  96
PATTERSON      PTCLDY    82  77  83 SW5       30.08F
SALT POINT       N/A     88  79  74 SW7       30.04S HX 103
NEW IBERIA     PTCLDY    86  75  69 SW6       30.04R HX  95
CHENAULT AIRPK CLEAR     88  72  58 SW8       30.04S

$$

LAZ027-028-280200-
CENTRAL LOUISIANA

CITY           SKY/WX    TMP DP  RH WIND       PRES   REMARKS
FORT POLK      CLEAR     88  74  63 CALM      30.02S HX  96
ALEXANDRIA INT CLEAR     87  76  69 CALM      29.99S HX  97
ALEXANDRIA     CLEAR     86  77  74 CALM      30.01S HX  97

$$

LAZ001-002-280200-
NORTHWEST LOUISIANA

CITY           SKY/WX    TMP DP  RH WIND       PRES   REMARKS
SHREVEPORT     PTCLDY    89  74  60 SW6       29.99S HX  98
BARKSDALE AFB  CLEAR     91  72  53 SW8       29.99F HX  97
DTN SHREVEPORT CLEAR     90  71  53 SW9       29.99S HX  96

$$

LAZ014-016-280200-
NORTHEAST LOUISIANA

CITY           SKY/WX    TMP DP  RH WIND       PRES   REMARKS
MONROE         CLEAR     89  72  56 SW5       29.99S HX  96
TALLULAH       PTCLDY    85  75  72 SW3       29.99F

$$




USA.gov is the U.S. government's official web portal to all federal, state and local government web resources and services.